Weather History for Fort Leonard Wood, MO

Change the Weather History Date:

Friday, January 18, 2013

  Actual Average Record
Temperature  
Mean Temperature 39 °F -  
Max Temperature 55 °F 39 °F 57 °F (2006)
Min Temperature 23 °F 25 °F 1 °F (1997)
Degree Days  
Heating Degree Days 26    
Moisture  
Dew Point 24 °F    
Average Humidity 57    
Maximum Humidity 91    
Minimum Humidity 29    
Precipitation  
Precipitation 0.00 in - - ()
Sea Level Pressure  
Sea Level Pressure 30.35 in    
Wind  
Wind Speed 7 mph (South)    
Max Wind Speed 13 mph    
Max Gust Speed 24 mph    
Visibility 10 miles    
Events      
Averages and records for this station are not official NWS values.
T = Trace of Precipitation, MM = Missing Value Source: NWS Daily Summary

Daily Weather History Graph

Daily Weather History Graph

Search for Another Location

Airport:

Trip Planner

Search our weather history database for the weather conditions in past years. The results will help you decide how hot, cold, wet, or windy it might be!

Date:

Astronomy

Jan. 18, 2013 Rise Set
Actual Time 7:21 AM CST 5:17 PM CST
Civil Twilight 6:52 AM CST 5:45 PM CST
Nautical Twilight 6:20 AM CST 6:17 PM CST
Astronomical Twilight 5:49 AM CST 6:49 PM CST
Moon 11:09 AM CST (1/18) No Moon Set
Length of Visible Light 10h 52m
Length of Day
9h 55m
Waxing Crescent, 47% of the Moon is Illuminated
Jan 18
Waxing Crescent
Jan 18
First Quarter
Jan 26
Full
Feb 3
Last Quarter
Feb 10
New

Hourly Weather History & Observations

Time (CST) Temp. Windchill Dew Point Humidity Pressure Visibility Wind Dir Wind Speed Gust Speed Precip Events Conditions
12:55 AM 25.0 °F 20.7 °F 22.6 °F 91% 30.50 in 10.0 mi SSW 3.5 mph - N/A   Clear
1:55 AM 24.8 °F 19.1 °F 21.6 °F 87% 30.51 in 10.0 mi SE 4.6 mph - N/A   Clear
2:55 AM 25.3 °F 19.7 °F 21.4 °F 85% 30.51 in 10.0 mi SSE 4.6 mph - N/A   Clear
3:55 AM 23.9 °F 18.0 °F 20.7 °F 87% 30.49 in 10.0 mi SE 4.6 mph - N/A   Clear
4:55 AM 23.9 °F 19.5 °F 20.7 °F 87% 30.48 in 10.0 mi SSE 3.5 mph - N/A   Clear
5:55 AM 23.2 °F 16.0 °F 20.1 °F 88% 30.48 in 10.0 mi SE 5.8 mph - N/A   Clear
6:55 AM 25.3 °F 16.7 °F 20.7 °F 82% 30.47 in 10.0 mi South 8.1 mph - N/A   Clear
7:55 AM 28.0 °F 22.8 °F 21.7 °F 77% 30.47 in 10.0 mi South 4.6 mph - N/A   Clear
8:55 AM 35.1 °F 28.6 °F 23.5 °F 63% 30.46 in 10.0 mi SSW 8.1 mph - N/A   Clear
9:55 AM 39.9 °F 33.4 °F 24.6 °F 54% 30.46 in 10.0 mi South 10.4 mph - N/A   Clear
10:55 AM 45.3 °F 39.3 °F 24.8 °F 45% 30.42 in 10.0 mi South 12.7 mph 18.4 mph N/A   Clear
11:55 AM 50.5 °F - 24.4 °F 36% 30.37 in 10.0 mi SSW 8.1 mph - N/A   Clear
12:55 PM 52.5 °F - 23.2 °F 32% 30.31 in 10.0 mi SSW 8.1 mph 19.6 mph N/A   Clear
1:55 PM 54.7 °F - 22.8 °F 29% 30.28 in 10.0 mi SW 12.7 mph 19.6 mph N/A   Clear
2:55 PM 55.0 °F - 23.5 °F 30% 30.26 in 10.0 mi SSW 11.5 mph 20.7 mph N/A   Clear
3:55 PM 54.3 °F - 23.0 °F 30% 30.25 in 10.0 mi SSW 11.5 mph 24.2 mph N/A   Clear
4:55 PM 52.0 °F - 24.6 °F 35% 30.24 in 10.0 mi South 12.7 mph 19.6 mph N/A   Clear
5:55 PM 47.1 °F - 26.2 °F 44% 30.23 in 10.0 mi South 8.1 mph - N/A   Clear
6:55 PM 45.3 °F 40.6 °F 27.0 °F 49% 30.22 in 10.0 mi South 9.2 mph 19.6 mph N/A   Clear
7:55 PM 45.7 °F 40.6 °F 26.2 °F 47% 30.21 in 10.0 mi South 10.4 mph 17.3 mph N/A   Clear
8:55 PM 45.3 °F 40.6 °F 24.8 °F 45% 30.19 in 10.0 mi South 9.2 mph - N/A   Clear
9:55 PM 44.6 °F 38.8 °F 25.2 °F 46% 30.18 in 10.0 mi SSW 11.5 mph 18.4 mph N/A   Clear
10:55 PM 43.9 °F 37.9 °F 26.1 °F 50% 30.17 in 10.0 mi SSW 11.5 mph 18.4 mph N/A   Clear
11:55 PM 42.6 °F 37.2 °F 26.8 °F 54% 30.16 in 10.0 mi SSW 9.2 mph - N/A   Clear